[[{"header":{"parameterUnit":"m.s-1","parameterCategory":1,"la1":30.2991,"la2":30.254,"lo1":-89.0895,"lo2":-89.0444,"dy":0.0017,"dx":0.0017,"nx":28,"ny":28,"refTime":"2025-03-22T03:00:00:Z","depth":0,"parameterNumber":2,"parameterNumberName":"U-component_of_WINDS"},"data":[0,0,0,0,0,0,0,0,0,0,0,0,0,0,0,0,0,0,0,0,0,0,0,0,0,0,0,0,0,0,0,0,0,0,0,0,0,0,0,0,0,0,0,0,0,0,0,0,0,0,0,0,0,0,0,0,0,0,-2.258,-2.258,0,-2.2614,-2.2615,-2.2615,-2.2614,-2.2613,-2.2613,-2.2612,-2.2649,-2.265,-2.2651,0,0,0,0,0,0,0,0,0,0,0,0,0,-2.2514,-2.2515,-2.258,-2.258,-2.258,-2.2614,-2.2615,-2.2615,-2.2614,-2.2613,-2.2613,-2.2612,-2.2648,-2.265,-2.2651,0,0,0,0,0,0,0,0,0,0,0,0,0,-2.2545,-2.2515,-2.2579,-2.2584,-2.2585,-2.2614,-2.2615,-2.2615,-2.2614,-2.2613,-2.2613,-2.2612,-2.2647,-2.265,-2.2652,-2.2679,0,0,-2.2658,-2.2659,0,0,0,0,0,0,0,0,-2.2543,-2.2547,-2.2583,-2.2584,-2.2584,-2.2609,-2.2605,-2.2637,-2.2614,-2.2603,-2.2612,-2.2611,-2.2636,-2.2639,-2.2647,-2.2681,-2.2683,-2.2658,-2.266,-2.2661,-2.2661,0,0,0,0,0,0,0,-2.2541,-2.2546,-2.2593,-2.2583,-2.2584,-2.2585,-2.2588,-2.2611,-2.2623,-2.2604,-2.2604,-2.2608,-2.2636,-2.2645,-2.2648,-2.2683,-2.2658,-2.266,-2.2661,-2.2662,-2.2743,-2.2744,0,0,0,0,0,0,-2.2538,-2.2544,-2.2592,-2.2594,-2.2561,-2.2586,-2.259,-2.2602,-2.2623,-2.2625,-2.2608,-2.2608,-2.2642,-2.2646,-2.2649,-2.2684,-2.2661,-2.2663,-2.2664,-2.2742,-2.2743,-2.2744,0,0,0,0,0,0,-2.2536,-2.2542,-2.2591,-2.2569,-2.2575,-2.2588,-2.2601,-2.2603,-2.2612,-2.2626,-2.2629,-2.2615,-2.2641,-2.2646,-2.2672,-2.2685,-2.2663,-2.2665,-2.2741,-2.2743,-2.2744,-2.2752,0,0,0,0,0,0,-2.2534,-2.2541,-2.2552,-2.2569,-2.2577,-2.2613,-2.2602,-2.2604,-2.2615,-2.2615,-2.2633,-2.2636,-2.2641,-2.2669,-2.2674,-2.2687,-2.2667,-2.274,-2.2742,-2.2744,-2.2751,-2.2754,-2.2756,0,0,0,0,0,-2.2532,-2.2552,-2.2552,-2.2558,-2.2589,-2.2613,-2.2617,-2.2623,-2.2616,-2.2627,-2.2637,-2.2635,-2.2683,-2.2672,-2.2678,-2.2691,-2.2739,-2.2741,-2.2743,-2.275,-2.2753,-2.2756,0,0,0,0,0,0,-2.2535,-2.2555,-2.2554,-2.2581,-2.2596,-2.2613,-2.2626,-2.2627,-2.2643,-2.2642,-2.2649,-2.2653,-2.2679,-2.2688,-2.2675,-2.272,-2.271,-2.2714,-2.2713,-2.2716,-2.2719,-2.2716,-2.2669,0,0,0,0,0,-2.2539,-2.2557,-2.2573,-2.2595,-2.2602,-2.2613,-2.2624,-2.2627,-2.2643,-2.2649,-2.266,-2.2675,-2.2694,-2.2706,-2.2724,-2.2753,-2.2757,-2.2765,-2.2768,-2.277,-2.2772,-2.2789,-2.2793,-2.2751,-2.2751,-2.2751,0,0,-2.2547,-2.256,-2.2571,-2.2596,-2.2607,-2.2626,-2.2618,-2.2638,-2.2651,-2.2652,-2.2677,-2.2686,-2.2704,-2.2731,-2.2744,-2.274,-2.2785,-2.2773,-2.2774,-2.2775,-2.2792,-2.2796,-2.2799,-2.2752,-2.2752,-2.2752,0,0,-2.2571,-2.2583,-2.2602,-2.2615,-2.2632,-2.264,-2.2645,-2.2663,-2.2669,-2.2694,-2.2695,-2.2712,-2.2744,-2.2756,-2.2767,-2.2798,-2.2797,-2.2804,-2.2817,-2.2833,-2.2837,-2.284,-2.2851,-2.2855,-2.2807,-2.2807,-2.2807,0,-2.2579,-2.2606,-2.2613,-2.2632,-2.2644,-2.2646,-2.2666,-2.2678,-2.2701,-2.2709,-2.2704,-2.2744,-2.2756,-2.2787,-2.2795,-2.2804,-2.281,-2.2801,-2.2836,-2.2839,-2.2841,-2.2852,-2.2856,-2.2807,-2.2807,-2.2807,-2.2807,0,-2.2615,-2.2634,-2.2648,-2.267,-2.2683,-2.2703,-2.2714,-2.2727,-2.273,-2.2738,-2.2765,-2.278,-2.2801,-2.2809,-2.2812,-2.2841,-2.2837,-2.2834,-2.2824,-2.2846,-2.2856,-2.286,-2.2808,-2.2808,-2.2808,-2.2808,0,0,-2.264,-2.2667,-2.2672,-2.2682,-2.2703,-2.2718,-2.2739,-2.276,-2.2771,-2.2787,-2.2805,-2.2833,-2.283,-2.2843,-2.2847,-2.2862,-2.2886,-2.2857,-2.2857,-2.2861,-2.2919,-2.2921,-2.2926,-2.2886,-2.2887,-2.2888,-2.2918,0,-2.2666,-2.2702,-2.271,-2.2741,-2.276,-2.2762,-2.2781,-2.2796,-2.2805,-2.2822,-2.2832,-2.2852,-2.2847,-2.2854,-2.2869,-2.288,-2.2897,-2.2878,-2.2903,-2.2904,-2.2897,-2.2931,-2.2933,-2.296,-2.2922,-2.2922,-2.2923,0,-2.27,-2.2718,-2.2751,-2.277,-2.2778,-2.2795,-2.2815,-2.2831,-2.2849,-2.2855,-2.2869,-2.2873,-2.2896,-2.2886,-2.2918,-2.2904,-2.2915,-2.2923,-2.2924,-2.2926,-2.2914,-2.2933,-2.2969,-2.2973,-2.2929,-2.2929,-2.2928,0,-2.2715,-2.2747,-2.2772,-2.278,-2.2804,-2.2815,-2.2825,-2.2842,-2.2855,-2.2873,-2.2882,-2.2902,-2.2914,-2.293,-2.294,-2.2932,-2.2971,-2.2962,-2.2977,-2.2976,-2.2984,-2.2983,-2.3022,-2.2992,-2.2992,-2.2992,-2.2992,0,-2.2743,-2.2763,-2.2779,-2.2793,-2.2817,-2.2826,-2.2849,-2.2859,-2.2875,-2.2893,-2.2897,-2.2913,-2.2925,-2.2944,-2.2952,-2.2977,-2.2982,-2.2988,-2.299,-2.2987,-2.2986,-2.2994,-2.2992,-2.2993,-2.2993,-2.2993,-2.2993,0,-2.2763,-2.2774,-2.2801,-2.2821,-2.2826,-2.2843,-2.286,-2.2875,-2.2885,-2.2907,-2.2913,-2.2929,-2.2951,-2.2962,-2.299,-2.2996,-2.3024,-2.3025,-2.3018,-2.3018,-2.3033,-2.3031,-2.3077,-2.3083,-2.305,-2.305,-2.305,0,-2.2779,-2.2795,-2.2817,-2.2829,-2.284,-2.2859,-2.2872,-2.2882,-2.2896,-2.2918,-2.2931,-2.2953,-2.2971,-2.3007,-2.3021,-2.3043,-2.3044,-2.3059,-2.3047,-2.3044,-2.3044,-2.3043,-2.3044,-2.306,-2.306,-2.3061,-2.3061,0,-2.2808,-2.2813,-2.2831,-2.2851,-2.2867,-2.2884,-2.29,-2.291,-2.2923,-2.2938,-2.2961,-2.2975,-2.3004,-2.3027,-2.305,-2.3061,-2.3063,-2.3065,-2.3069,-2.3066,-2.3062,-2.3064,-2.3023,-2.3063,-2.3063,-2.3063,-2.3063,-2.3063,-2.2827,-2.2841,-2.2859,-2.2879,-2.2893,-2.2909,-2.2924,-2.2936,-2.2955,-2.2979,-2.2984,-2.3008,-2.3027,-2.3058,-2.3071,-2.309,-2.3087,-2.3094,-2.3096,-2.3097,-2.3097,-2.3059,-2.3095,-2.3095,-2.3095,-2.3095,-2.3095,0,-2.2855,-2.2867,-2.2886,-2.2909,-2.2925,-2.2926,-2.2945,-2.2959,-2.298,-2.2997,-2.3016,-2.3042,-2.3065,-2.3081,-2.3104,-2.3117,-2.3118,-2.3122,-2.3121,-2.3124,-2.3099,-2.3092,-2.312,-2.312,-2.312,-2.312,-2.312,-2.312,-2.2872,-2.2896,-2.2903,-2.2935,-2.2947,-2.2971,-2.2982,-2.2996,-2.301,-2.304,-2.3058,-2.3069,-2.3086,-2.3111,-2.3131,-2.3136,-2.3144,-2.3148,-2.3152,-2.3128,-2.3125,-2.3123,-2.3117,-2.315,-2.315,-2.3176,-2.3176,-2.3176]},{"header":{"parameterUnit":"m.s-1","parameterCategory":1,"la1":30.2991,"la2":30.254,"lo1":-89.0895,"lo2":-89.0444,"dy":0.0017,"dx":0.0017,"nx":28,"ny":28,"refTime":"2025-03-22T03:00:00:Z","depth":0,"parameterNumber":3,"parameterNumberName":"V-component_of_WINDS"},"data":[0,0,0,0,0,0,0,0,0,0,0,0,0,0,0,0,0,0,0,0,0,0,0,0,0,0,0,0,0,0,0,0,0,0,0,0,0,0,0,0,0,0,0,0,0,0,0,0,0,0,0,0,0,0,0,0,0,0,6.0205,6.0206,0,6.0257,6.0258,6.0258,6.0259,6.0259,6.0258,6.0258,6.0307,6.0309,6.0311,0,0,0,0,0,0,0,0,0,0,0,0,0,6.0106,6.0108,6.0205,6.0206,6.0206,6.0257,6.0258,6.0258,6.026,6.0259,6.0258,6.0257,6.0307,6.0309,6.0311,0,0,0,0,0,0,0,0,0,0,0,0,0,6.0152,6.0108,6.0205,6.0213,6.0214,6.0257,6.0258,6.0258,6.026,6.0259,6.0258,6.0257,6.0306,6.0309,6.0312,6.0348,0,0,6.032,6.0322,0,0,0,0,0,0,0,0,6.015,6.0156,6.0211,6.0213,6.0214,6.0251,6.0241,6.0288,6.026,6.0242,6.0258,6.0257,6.0289,6.0293,6.0305,6.0351,6.0353,6.0321,6.0322,6.0324,6.0325,0,0,0,0,0,0,0,6.0147,6.0154,6.0226,6.0212,6.0214,6.0214,6.0219,6.025,6.027,6.0244,6.0244,6.025,6.029,6.0302,6.0306,6.0353,6.0321,6.0323,6.0325,6.0326,6.0435,6.0436,0,0,0,0,0,0,6.0142,6.0151,6.0224,6.0227,6.0179,6.0216,6.0223,6.024,6.027,6.0274,6.0251,6.025,6.0298,6.0303,6.0308,6.0355,6.0324,6.0326,6.0328,6.0433,6.0435,6.0436,0,0,0,0,0,0,6.014,6.0149,6.0222,6.0189,6.0199,6.0219,6.0239,6.0242,6.0254,6.0276,6.0279,6.026,6.0297,6.0304,6.0339,6.0356,6.0328,6.033,6.0432,6.0434,6.0435,6.0447,0,0,0,0,0,0,6.0137,6.0148,6.0162,6.019,6.02,6.0252,6.024,6.0243,6.0259,6.0259,6.0285,6.0289,6.0297,6.0335,6.0342,6.036,6.0333,6.0431,6.0433,6.0435,6.0445,6.0449,6.0452,0,0,0,0,0,6.0133,6.0162,6.0163,6.0171,6.0219,6.0253,6.0259,6.027,6.0261,6.0275,6.029,6.0288,6.0353,6.0338,6.0346,6.0365,6.0429,6.0432,6.0435,6.0444,6.0448,6.0452,0,0,0,0,0,0,6.0134,6.0165,6.0167,6.0205,6.0227,6.0254,6.0272,6.0274,6.0297,6.0296,6.0306,6.0312,6.0348,6.036,6.0343,6.0404,6.039,6.0395,6.0395,6.0399,6.0403,6.0399,6.0335,0,0,0,0,0,6.0139,6.0165,6.0191,6.0222,6.0233,6.0251,6.0266,6.0273,6.0295,6.0304,6.032,6.0342,6.0367,6.0384,6.0408,6.0447,6.0454,6.0464,6.0468,6.0471,6.0474,6.0498,6.0504,6.0445,6.0445,6.0444,0,0,6.0148,6.0169,6.0184,6.0223,6.024,6.0267,6.0258,6.0286,6.0307,6.0308,6.0343,6.0356,6.038,6.0418,6.0436,6.043,6.0493,6.0474,6.0476,6.0478,6.0502,6.0507,6.0512,6.0446,6.0446,6.0446,0,0,6.018,6.0197,6.0227,6.0245,6.0273,6.0285,6.0292,6.0319,6.0329,6.0365,6.0367,6.039,6.0434,6.0452,6.0467,6.0509,6.0508,6.0516,6.0534,6.0558,6.0562,6.0566,6.0583,6.0589,6.052,6.052,6.052,0,6.0188,6.0229,6.0241,6.0271,6.0288,6.0292,6.0322,6.0339,6.0373,6.0385,6.0378,6.0434,6.0451,6.0494,6.0505,6.0516,6.0525,6.0513,6.0561,6.0565,6.0569,6.0585,6.0591,6.0521,6.0521,6.052,6.052,0,6.0239,6.0268,6.0288,6.0323,6.0342,6.0372,6.0388,6.0407,6.0412,6.0425,6.0462,6.0483,6.0513,6.0523,6.0527,6.0568,6.0564,6.0559,6.0545,6.0576,6.0591,6.0597,6.0522,6.0522,6.0521,6.0521,0,0,6.027,6.0314,6.0321,6.0338,6.037,6.0392,6.0422,6.0454,6.047,6.0493,6.052,6.0558,6.0554,6.0571,6.0578,6.0598,6.0632,6.0591,6.0591,6.0599,6.068,6.0685,6.0691,6.0632,6.0633,6.0634,6.0679,0,6.0306,6.0362,6.0375,6.0422,6.045,6.0455,6.0482,6.0504,6.0518,6.0543,6.0557,6.0585,6.0577,6.0588,6.0608,6.0624,6.0649,6.0621,6.0657,6.0658,6.0652,6.0699,6.0703,6.0744,6.0684,6.0685,6.0686,0,6.0356,6.0383,6.0433,6.0465,6.0477,6.05,6.0531,6.0555,6.0581,6.059,6.061,6.0616,6.0648,6.0633,6.0678,6.0659,6.0675,6.0685,6.0687,6.0691,6.0674,6.0706,6.0757,6.0764,6.0695,6.0694,6.0694,0,6.0376,6.0425,6.0462,6.0476,6.0513,6.053,6.0546,6.0571,6.059,6.0616,6.0629,6.0658,6.0675,6.0697,6.0711,6.0699,6.0756,6.0742,6.0764,6.0764,6.0776,6.0775,6.0832,6.0785,6.0784,6.0784,6.0784,0,6.0415,6.0446,6.0472,6.0495,6.0531,6.0546,6.058,6.0596,6.0619,6.0645,6.0651,6.0675,6.0691,6.0718,6.0729,6.0766,6.0772,6.0781,6.0783,6.0781,6.078,6.0792,6.079,6.0786,6.0786,6.0785,6.0785,0,6.0444,6.0462,6.0504,6.0536,6.0545,6.057,6.0597,6.062,6.0634,6.0668,6.0676,6.0699,6.0731,6.0747,6.0786,6.0793,6.0836,6.0836,6.0827,6.0829,6.0851,6.0849,6.0917,6.0928,6.0873,6.0873,6.0874,0,6.0468,6.0493,6.0529,6.0548,6.0564,6.0594,6.0614,6.063,6.0651,6.0684,6.0703,6.0736,6.0763,6.0814,6.0834,6.0865,6.0866,6.0888,6.0871,6.0868,6.0868,6.0867,6.0871,6.0891,6.0892,6.0892,6.0893,0,6.051,6.0519,6.0548,6.0581,6.0606,6.0632,6.0658,6.0673,6.0693,6.0716,6.075,6.0771,6.0813,6.0846,6.0879,6.0895,6.0898,6.0898,6.0905,6.0903,6.0898,6.0903,6.0837,6.0897,6.0896,6.0896,6.0896,6.0896,6.0538,6.0562,6.0591,6.0624,6.0646,6.0671,6.0695,6.0713,6.0742,6.0779,6.0786,6.0823,6.085,6.0895,6.0912,6.0941,6.0936,6.0946,6.0949,6.0951,6.0953,6.0893,6.0947,6.0947,6.0946,6.0946,6.0946,0,6.0582,6.0602,6.0633,6.067,6.0697,6.0698,6.0728,6.075,6.0782,6.0808,6.0836,6.0876,6.0909,6.0932,6.0965,6.0984,6.0987,6.0993,6.0992,6.0996,6.0955,6.0946,6.099,6.099,6.099,6.099,6.099,6.099,6.0608,6.0648,6.0661,6.0712,6.0732,6.0769,6.0786,6.0809,6.0831,6.0876,6.0904,6.0919,6.0944,6.098,6.1011,6.1017,6.1029,6.1036,6.1042,6.1003,6.0998,6.0994,6.0986,6.1038,6.1038,6.1081,6.1081,6.1081]}]]